Location: ???????????
(54.6970°N, 39.1477°E)
Time: 11:37:06
(UTC+00:00)

Cosmos 2360 Rocket - Pass Details

Date: 19 May 2025
Orbit: 834 x 842 km, 71.0° (Epoch: 13 June)

Event Time Altitude Azimuth Distance (km) Brightness Sun altitude
Rises 23:11:36 0° 314° (NW) 3,394 5.6 -11.6°
Reaches altitude 10° 23:17:00 10° 271° (W) 2,451 4.4 -11.2°
Maximum altitude 23:17:24 10° 267° (W) 2,445 4.3 -11.2°
Drops below altitude 10° 23:17:49 10° 263° (W) 2,450 4.3 -11.2°
Enters shadow 23:19:41 - 245° (WSW) 2,611 4.3 -11.1°
